This is the latest recevied weather packets stored in our database for station/object VK6NP-1. If no packets are shown the sender has not sent any weather packets the latest 1 day(s).
| Time | Temp. | Humidity | Pressure | Rain* | Wind** | Luminosity | Snow |
|---|---|---|---|---|---|---|---|
| 1778081379 | 16.67° C | 60% | 1031 hPa | 0 mm | 0 m/s | - | - |
| 1778080477 | 16.67° C | 59% | 1030.9 hPa | 0 mm | 0 m/s | - | - |
| 1778080177 | 16.67° C | 59% | 1031 hPa | 0 mm | 0 m/s | - | - |
| 1778079573 | 16.67° C | 59% | 1031.2 hPa | 0 mm | 0 m/s | - | - |
| 1778079273 | 17.22° C | 59% | 1031.1 hPa | 0 mm | 0 m/s | - | - |
| 1778078757 | 17.22° C | 58% | 1031 hPa | 0 mm | 0 m/s | - | - |
| 1778077768 | 17.22° C | 58% | 1031.1 hPa | 0 mm | 0 m/s | - | - |
| 1778076866 | 17.78° C | 57% | 1030.9 hPa | 0 mm | 0 m/s | - | - |
| 1778076266 | 17.22° C | 58% | 1030.9 hPa | 0 mm | 0 m/s | - | - |
| 1778075963 | 17.22° C | 58% | 1030.9 hPa | 0 mm | 0 m/s | - | - |
| 1778075363 | 17.22° C | 58% | 1030.8 hPa | 0 mm | 0 m/s | - | - |
| 1778075060 | 17.78° C | 58% | 1030.8 hPa | 0 mm | 0 m/s | - | - |
| 1778074760 | 17.78° C | 57% | 1030.8 hPa | 0 mm | 0 m/s | - | - |
| 1778074158 | 17.78° C | 57% | 1030.8 hPa | 0 mm | 0 m/s | - | - |
| 1778073559 | 17.78° C | 57% | 1030.8 hPa | 0 mm | 0 m/s | - | - |
| 1778073255 | 17.78° C | 57% | 1030.7 hPa | 0 mm | 0 m/s | - | - |
| 1778072353 | 17.78° C | 57% | 1030.6 hPa | 0 mm | 0 m/s | - | - |
| 1778071450 | 17.78° C | 58% | 1030.5 hPa | 0 mm | 0 m/s | - | - |
| 1778070850 | 17.78° C | 59% | 1030.4 hPa | 0 mm | 0 m/s | - | - |
| 1778069947 | 16.67° C | 64% | 1030.3 hPa | 0 mm | 0 m/s | - | - |
| 1778069045 | 16.67° C | 67% | 1030.2 hPa | 0 mm | 0 m/s | - | - |
| 1778067239 | 17.22° C | 65% | 1029.8 hPa | 0 mm | 0 m/s | - | - |
| 1778066936 | 17.22° C | 65% | 1029.7 hPa | 0 mm | 0 m/s | - | - |
| 1778066337 | 17.78° C | 64% | 1029.7 hPa | 0 mm | 0 m/s | - | - |
| 1778066033 | 17.78° C | 64% | 1029.6 hPa | 0 mm | 0 m/s | - | - |
* Rain latest hour (hover to see other rain measurements)
** Current wind speed in m/s (hover to see current wind gust speed)